Estación de Tamelaike INIA
Ultimos registro cada 15 minutos 51
| N° | Estación | Fecha / Hora | Temperatura | Humedad | Lluvia | Velocidad | Dirección | Radiación | Presion |
| 51 | Tamelaike INIA | 07-05-2026 12:30 | 5 | 59,3 | 0 | 9 | 278 | 440 | 1002 |
| 50 | Tamelaike INIA | 07-05-2026 12:15 | 4,8 | 59,3 | 0 | 8,7 | 276 | 445 | 1003 |
| 49 | Tamelaike INIA | 07-05-2026 12:00 | 4,7 | 60,9 | 0 | 7,8 | 277 | 438 | 1003 |
| 48 | Tamelaike INIA | 07-05-2026 11:45 | 4,4 | 63 | 0 | 7,4 | 278 | 424 | 1005 |
| 47 | Tamelaike INIA | 07-05-2026 11:30 | 4,2 | 63,5 | 0 | 7,4 | 279 | 416 | 1001 |
| 46 | Tamelaike INIA | 07-05-2026 11:15 | 3,7 | 65,9 | 0 | 7,5 | 279 | 331 | 1003 |
| 45 | Tamelaike INIA | 07-05-2026 11:00 | 3,8 | 66,8 | 0 | 7,2 | 280 | 394 | 1004 |
| 44 | Tamelaike INIA | 07-05-2026 10:45 | 3,3 | 68,1 | 0 | 7,8 | 277 | 315 | 1005 |
| 43 | Tamelaike INIA | 07-05-2026 10:30 | 3 | 69,5 | 0 | 7,7 | 276 | 229 | 1004 |
| 42 | Tamelaike INIA | 07-05-2026 10:15 | 2,5 | 71 | 0 | 6,7 | 276 | 166 | 1022 |
| 41 | Tamelaike INIA | 07-05-2026 10:00 | 2,5 | 72,2 | 0 | 6 | 280 | 143 | 1007 |
| 40 | Tamelaike INIA | 07-05-2026 09:45 | 2,2 | 70,8 | 0 | 7,1 | 275 | 128 | 1004 |
| 39 | Tamelaike INIA | 07-05-2026 09:30 | 2,2 | 72,3 | 0 | 6,6 | 276 | 106 | 1004 |
| 38 | Tamelaike INIA | 07-05-2026 09:15 | 1,8 | 72,3 | 0 | 6,6 | 271 | 139 | 1004 |
| 37 | Tamelaike INIA | 07-05-2026 09:00 | 1,8 | 73,6 | 0 | 5,4 | 277 | 70 | 1004 |
| 36 | Tamelaike INIA | 07-05-2026 08:45 | 1,7 | 72,3 | 0 | 5,2 | 273 | 82 | 1005 |
| 35 | Tamelaike INIA | 07-05-2026 08:30 | 1,4 | 72,1 | 0 | 5,5 | 262 | 54 | 1004 |
| 34 | Tamelaike INIA | 07-05-2026 08:15 | 1 | 73,7 | 0 | 5,6 | 268 | 19 | 1004 |
| 33 | Tamelaike INIA | 07-05-2026 08:00 | 0,9 | 74,6 | 0 | 5,6 | 270 | 6 | 1003 |
| 32 | Tamelaike INIA | 07-05-2026 07:45 | 0,5 | 77,4 | 0 | 4,6 | 269 | 2 | 1004 |
| 31 | Tamelaike INIA | 07-05-2026 07:30 | 0,5 | 78,4 | 0 | 4,4 | 268 | 0 | 1003 |
| 30 | Tamelaike INIA | 07-05-2026 07:15 | 0,4 | 78,6 | 0 | 4,2 | 275 | 0 | 1004 |
| 29 | Tamelaike INIA | 07-05-2026 07:00 | 0,8 | 79,2 | 0 | 4,9 | 266 | 0 | 1002 |
| 28 | Tamelaike INIA | 07-05-2026 06:45 | 0,7 | 75,8 | 0 | 4,4 | 261 | 0 | 1003 |
| 27 | Tamelaike INIA | 07-05-2026 06:30 | 1 | 77,2 | 0 | 5,6 | 267 | 0 | 1003 |
| 26 | Tamelaike INIA | 07-05-2026 06:15 | 1 | 75,9 | 0 | 6,4 | 268 | 0 | 1003 |
| 25 | Tamelaike INIA | 07-05-2026 06:00 | 0,8 | 78,2 | 0 | 4,6 | 273 | 0 | 1003 |
| 24 | Tamelaike INIA | 07-05-2026 05:45 | 0,9 | 78,4 | 0 | 5,4 | 275 | 0 | 1002 |
| 23 | Tamelaike INIA | 07-05-2026 05:30 | 0,8 | 78,2 | 0 | 5,6 | 269 | 0 | 1002 |
| 22 | Tamelaike INIA | 07-05-2026 05:15 | 0,6 | 79,6 | 0 | 2,8 | 256 | 0 | 1003 |
| 21 | Tamelaike INIA | 07-05-2026 05:00 | 0,8 | 77,2 | 0 | 1,2 | 258 | 0 | 1001 |
| 20 | Tamelaike INIA | 07-05-2026 04:45 | 0,9 | 77,2 | 0 | 0,8 | 287 | 0 | 1003 |
| 19 | Tamelaike INIA | 07-05-2026 04:30 | 1,3 | 77,3 | 0 | 3,4 | 279 | 0 | 1001 |
| 18 | Tamelaike INIA | 07-05-2026 04:15 | 1,6 | 74,7 | 0 | 5 | 273 | 0 | 1001 |
| 17 | Tamelaike INIA | 07-05-2026 04:00 | 1,7 | 75,4 | 0 | 5,3 | 276 | 0 | 1001 |
| 16 | Tamelaike INIA | 07-05-2026 03:45 | 1,8 | 73,4 | 0 | 6,7 | 271 | 0 | 1001 |
| 15 | Tamelaike INIA | 07-05-2026 03:30 | 1,9 | 72,1 | 0 | 6,8 | 276 | 0 | 1001 |
| 14 | Tamelaike INIA | 07-05-2026 03:15 | 2 | 72,8 | 0 | 5,4 | 281 | 0 | 1001 |
| 13 | Tamelaike INIA | 07-05-2026 03:00 | 2 | 74,6 | 0 | 5,4 | 288 | 0 | 1001 |
| 12 | Tamelaike INIA | 07-05-2026 02:45 | 1,8 | 74,8 | 0 | 6 | 278 | 0 | 1005 |
| 11 | Tamelaike INIA | 07-05-2026 02:30 | 1,4 | 78,7 | 0 | 5,6 | 272 | 0 | 1003 |
| 10 | Tamelaike INIA | 07-05-2026 02:15 | 1,1 | 79,2 | 0 | 3,3 | 271 | 0 | 1001 |
| 9 | Tamelaike INIA | 07-05-2026 02:00 | 1,4 | 78,1 | 0 | 3,3 | 278 | 0 | 1000 |
| 8 | Tamelaike INIA | 07-05-2026 01:45 | 1,5 | 76,6 | 0 | 5,6 | 263 | 0 | 1001 |
| 7 | Tamelaike INIA | 07-05-2026 01:30 | 1,4 | 78 | 0 | 5,4 | 267 | 0 | 1000 |
| 6 | Tamelaike INIA | 07-05-2026 01:15 | 1,8 | 77,8 | 0 | 6,1 | 260 | 0 | 1001 |
| 5 | Tamelaike INIA | 07-05-2026 01:00 | 1,6 | 79 | 0 | 5,4 | 269 | 0 | 1000 |
| 4 | Tamelaike INIA | 07-05-2026 00:45 | 1,8 | 77,7 | 0 | 4,3 | 262 | 0 | 1001 |
| 3 | Tamelaike INIA | 07-05-2026 00:30 | 2 | 75,4 | 0 | 5,2 | 256 | 0 | 1002 |
| 2 | Tamelaike INIA | 07-05-2026 00:15 | 2,2 | 73,4 | 0 | 5,7 | 253 | 0 | 1000 |
| 1 | Tamelaike INIA | 07-05-2026 00:00 | 1,6 | 75,5 | 0 | 3,4 | 271 | 0 | 1000 |